This demonstration page uses our WeatherBlox Daily Observations layout. Learn more.

Left ArrowRight Arrow

39.01783, -85.05884

Hourly Observations for October 31, 2019

Temp ( °F °C ) Dew Point ( °F °C ) Humidity (%) Winds ( mph kmh ) Pressure ( in mb ) Visibility ( mi km ) Precip ( " mm )
12:30 am 00:30 Mostly Cloudy with Drizzle 57 13.9 56 13.3 96 96 W 3 6 29.84 1010 0 0 0.00 0.00
12:52 am 00:52 Mostly Cloudy with Drizzle 57 13.9 55 12.8 93 93 WSW 3 6 29.83 1010 0 0 0.00 0.00
1:52 am 01:52 Mostly Cloudy with Fog 57 13.9 55 12.8 93 93 Calm 29.79 1009 1 1 0.00 0.00
2:37 am 02:37 Mostly Cloudy with Mist and Fog 57 13.9 55 12.8 93 93 S 5 7 29.78 1008 1 1 0.00 0.00
2:52 am 02:52 Mostly Cloudy with Mist and Fog 57 13.9 55 12.8 93 93 SSW 5 7 29.77 1008 1 1 0.00 0.00
3:52 am 03:52 Mostly Cloudy with Fog 57 13.9 56 13.3 96 96 S 5 7 29.74 1007 0 0 0.00 0.00
4:52 am 04:52 Mostly Cloudy with Drizzle 57 13.9 56 13.3 96 96 SSE 6 9 29.70 1006 1 1 0.00 0.00
5:52 am 05:52 Cloudy with Light Rain 57 13.9 56 13.3 96 96 S 3 6 29.69 1005 1 1 0.04 1.02
6:27 am 06:27 Cloudy with Light Rain 57 13.9 56 13.3 96 96 SE 7 11 29.67 1005 5 8 0.02 0.51
6:52 am 06:52 Cloudy with Rain 58 14.4 56 13.3 93 93 E 5 7 29.63 1004 4 6 0.08 2.03
7:15 am 07:15 Cloudy with Rain 58 14.4 56 13.3 93 93 ESE 3 6 29.64 1004 5 8 0.03 0.76
7:39 am 07:39 Cloudy with Heavy Rain 58 14.4 56 13.3 93 93 SSE 6 9 29.64 1004 3 4 0.10 2.54
7:52 am 07:52 Cloudy with Heavy Rain 58 14.4 56 13.3 93 93 SSE 5 7 29.61 1003 2 3 0.21 5.33
8:11 am 08:11 Cloudy with Heavy Rain 58 14.4 56 13.3 93 93 Calm 29.61 1003 2 3 0.10 2.54
8:20 am 08:20 Cloudy with Rain 58 14.4 56 13.3 93 93 SW 5 7 29.62 1003 3 5 0.13 3.30
8:26 am 08:26 Cloudy with Rain 58 14.4 57 13.9 97 97 Calm 29.61 1003 3 4 0.15 3.81
8:52 am 08:52 Cloudy with Rain 57 13.9 56 13.3 96 96 W 10 17 29.60 1002 3 4 0.29 7.37
9:04 am 09:04 Cloudy with Rain 57 13.9 56 13.3 96 96 WSW 9 15 29.63 1003 3 4 0.03 0.76
9:14 am 09:14 Cloudy with Rain 57 13.9 55 12.8 93 93 W 18 30 29.62 1003 3 4 0.07 1.78
9:17 am 09:17 Cloudy with Rain 57 13.9 55 12.8 93 93 W 21 33 29.62 1003 3 5 0.08 2.03
9:52 am 09:52 Cloudy with Light Rain 53 11.7 50 10 89 89 W 14 22 29.65 1004 10 16 0.12 3.05
9:59 am 09:59 Cloudy with Light Rain 53 11.7 50 10 89 89 W 12 19 29.66 1005 8 13 0.00 0.00
10:52 am 10:52 Cloudy with Light Rain 51 10.6 48 8.9 89 89 W 9 15 29.64 1004 7 11 0.05 1.27
11:18 am 11:18 Cloudy with Light Rain 51 10.6 47 8.3 86 86 WSW 15 24 29.67 1005 9 14 0.01 0.25
11:41 am 11:41 Cloudy 50 10 46 7.8 86 86 W 20 31 29.68 1005 10 16 0.01 0.25
11:52 am 11:52 Cloudy 49 9.4 45 7.2 86 86 W 22 35 29.66 1005 10 16 0.01 0.25
12:52 pm 12:52 Cloudy with Light Rain 45 7.2 42 5.6 90 90 SW 15 24 29.72 1007 5 8 0.00 0.00
1:52 pm 13:52 Cloudy with Light Rain 40 4.4 35 1.7 83 83 WSW 16 26 29.76 1008 10 16 0.00 0.00
2:01 pm 14:01 Cloudy 40 4.4 35 1.7 83 83 WSW 21 33 29.80 1009 10 16 0.00 0.00
2:30 pm 14:30 Cloudy 40 4.4 33 0.6 77 77 W 22 35 29.81 1009 10 16 0.00 0.00
2:52 pm 14:52 Cloudy 40 4.4 34 1.1 79 79 WSW 15 24 29.78 1009 10 16 0.00 0.00
3:52 pm 15:52 Cloudy with Light Rain 39 3.9 31 -0.6 73 73 WSW 28 44 29.81 1010 10 16 0.00 0.00
4:52 pm 16:52 Cloudy 36 2.2 28 -2.2 73 73 W 23 37 29.88 1012 10 16 0.00 0.00
5:52 pm 17:52 Cloudy 36 2.2 28 -2.2 73 73 WSW 21 33 29.92 1013 10 16 0.00 0.00
6:52 pm 18:52 Cloudy 35 1.7 27 -2.8 72 72 W 23 37 29.99 1016 10 16 0.00 0.00
7:52 pm 19:52 Cloudy 35 1.7 27 -2.8 72 72 W 24 39 30.06 1018 10 16 0.00 0.00
8:52 pm 20:52 Cloudy 35 1.7 28 -2.2 76 76 W 18 30 30.11 1020 10 16 0.00 0.00
10:52 pm 22:52 Cloudy 34 1.1 27 -2.8 76 76 W 20 31 30.17 1022 10 16 0.00 0.00
11:52 pm 23:52 Cloudy 34 1.1 26 -3.3 73 73 W 15 24 30.19 1022 10 16 0.00 0.00

Powered by AerisWeather